Location: Camaret
(48.2753°N, 4.5961°W)
Time: 01:24:26
(UTC+00:00)

DMSP B5D1-3 - Pass Details

Date: 29 October 2020
Orbit: 768 x 780 km, 98.5° (Epoch: 26 November)

Event Time Altitude Azimuth Distance (km) Brightness Sun altitude
Rises 19:02:50 0° 16° (NNE) 3,270 7.6 -20.3°
Reaches altitude 10° 19:05:10 10° 19° (NNE) 2,339 6.8 -20.7°
Maximum altitude 19:10:19 68° 103° (ESE) 842 4.4 -21.6°
Drops below altitude 10° 19:15:26 10° 186° (S) 2,327 7.0 -22.4°
Sets 19:17:45 0° 189° (S) 3,251 7.8 -22.8°
